"Pseudo-MPEC" for P11dnbQ

Created 2021 Feb 28 16:07:07 UT using Find_Orb

Click here for an explanation of pseudo-MPECs

 
 Astrometry: 
     P11dnbQ  C2021 02 16Q@*0.P9w\vmQ(Cbpa`H6m2XQU_6ANbLIF\WQPUgLH_W*(?!CYIY'F51
     P11dnbQ  C2021 02 16[7X7vo2%1Astrometry^N2A+cK:*Qbi.Gq'Hnredacted;;qMB-?F51
     P11dnbQ  C2021 02 16D;IVt[nHm5.0:H:ke)S2T54P+OclickL8nL6dvFhere^1;a$*ohEF51
     P11dnbQ  C2021 02 16q(j6eDsY6ucB$for54s;%77Kuf6ZK+HexplanationpW*`mo^pBqF51

Station data:
(F51) Pan-STARRS 1, Haleakala  (N20.707235 W156.255910)  US/Hawaii.
   Observers N. Primak, A. Schultz, S. Watters, J. Thiel, T. Goggia. Measurer
   PS1 Science Consortium. 1.8-m Ritchey-Chrétien + CCD.

Orbital elements:  P11dnbQ
   Perihelion 2021 Jan 16.037138 +/- 51.8198 TT =  0:53:28 (JD 2459230.537138)
Epoch 2021 Feb 16.0 TT = JDT 2459261.5   Earth MOID: 0.3391   AutoNEOCP
M  14.50650944 +/- 27.564195        (J2000 ecliptic)
n   0.46851319 +/- 0.326413         Peri.  142.68260 +/- 88.388605
a   1.64180470 +/- 0.769661         Node   338.00148 +/- 58.147143
e   0.2153958 +/- 0.272084          Incl.   31.65878 +/- 15.278109
P   2.10/768.37d           H 22.8   G  0.15   U 12.0  SR
q 1.28816672 +/- 0.296788    Q 1.99544269 +/- 27.4305
From 4 observations 2021 Feb. 16 (45.6 min); mean residual 0".11
Residuals in arcseconds: 
210216 F51  .11+  .11+    210216 F51  .02+  .09+    
210216 F51  .17-  .20-    210216 F51  .04+  .01+    

Ephemerides (geocentric):
Date (UTC) HH   RA              Dec         delta   r     elong  mag " sig PA
---- -- -- --  -------------   -----------  ------ ------ -----  --- ---- ---
2021 02 28 16  09 21 38.864   +26 30 55.57  .36296 1.3235 152.6 22.2  41d 147
2021 02 28 17  09 21 30.479   +26 27 45.07  .36308 1.3235 152.6 22.2  41d 147
2021 02 28 18  09 21 22.112   +26 24 34.63  .36321 1.3236 152.5 22.2  41d 147
2021 02 28 19  09 21 13.763   +26 21 24.25  .36334 1.3237 152.5 22.2  41d 147
2021 02 28 20  09 21 05.432   +26 18 13.91  .36347 1.3237 152.5 22.2  41d 147
2021 02 28 21  09 20 57.120   +26 15 03.64  .36360 1.3238 152.4 22.2  41d 147
2021 02 28 22  09 20 48.825   +26 11 53.42  .36373 1.3238 152.4 22.2  41d 147
2021 02 28 23  09 20 40.549   +26 08 43.25  .36386 1.3239 152.4 22.2  41d 147
2021 03 01 00  09 20 32.290   +26 05 33.15  .36399 1.3240 152.3 22.2  41d 147
2021 03 01 01  09 20 24.049   +26 02 23.10  .36412 1.3240 152.3 22.2  41d 147
2021 03 01 02  09 20 15.827   +25 59 13.12  .36425 1.3241 152.3 22.2  41d 147
2021 03 01 03  09 20 07.622   +25 56 03.20  .36439 1.3242 152.3 22.2  41d 147
2021 03 01 04  09 19 59.436   +25 52 53.34  .36452 1.3242 152.2 22.2  41d 147
2021 03 01 05  09 19 51.267   +25 49 43.54  .36465 1.3243 152.2 22.2  41d 147
2021 03 01 06  09 19 43.116   +25 46 33.80  .36479 1.3244 152.2 22.2  41d 147
2021 03 01 07  09 19 34.983   +25 43 24.13  .36492 1.3244 152.1 22.2  42d 147
2021 03 01 08  09 19 26.868   +25 40 14.53  .36506 1.3245 152.1 22.2  42d 147
2021 03 01 09  09 19 18.771   +25 37 04.99  .36520 1.3246 152.1 22.2  42d 147
2021 03 01 10  09 19 10.692   +25 33 55.51  .36533 1.3246 152.0 22.2  42d 147
2021 03 01 11  09 19 02.631   +25 30 46.11  .36547 1.3247 152.0 22.2  42d 147
2021 03 01 12  09 18 54.587   +25 27 36.77  .36561 1.3248 152.0 22.3  42d 147
2021 03 01 13  09 18 46.561   +25 24 27.50  .36575 1.3248 151.9 22.3  42d 147
2021 03 01 14  09 18 38.554   +25 21 18.31  .36589 1.3249 151.9 22.3  42d 147
2021 03 01 15  09 18 30.564   +25 18 09.18  .36603 1.3250 151.9 22.3  42d 147
2021 03 01 16  09 18 22.591   +25 15 00.13  .36617 1.3250 151.8 22.3  42d 147
2021 03 01 17  09 18 14.637   +25 11 51.15  .36631 1.3251 151.8 22.3  42d 147
2021 03 01 18  09 18 06.700   +25 08 42.24  .36645 1.3252 151.8 22.3  42d 147
2021 03 01 19  09 17 58.781   +25 05 33.40  .36659 1.3252 151.7 22.3  42d 147
2021 03 01 20  09 17 50.880   +25 02 24.64  .36674 1.3253 151.7 22.3  42d 147
2021 03 01 21  09 17 42.997   +24 59 15.96  .36688 1.3254 151.7 22.3  42d 147
2021 03 01 22  09 17 35.131   +24 56 07.35  .36702 1.3254 151.6 22.3  42d 147
2021 03 01 23  09 17 27.283   +24 52 58.82  .36717 1.3255 151.6 22.3  42d 147
2021 03 02 00  09 17 19.452   +24 49 50.37  .36731 1.3256 151.6 22.3  42d 147
2021 03 02 01  09 17 11.639   +24 46 42.00  .36746 1.3256 151.5 22.3  42d 147
2021 03 02 02  09 17 03.844   +24 43 33.71  .36761 1.3257 151.5 22.3  42d 147
2021 03 02 03  09 16 56.067   +24 40 25.50  .36775 1.3258 151.4 22.3  42d 147
2021 03 02 04  09 16 48.307   +24 37 17.37  .36790 1.3258 151.4 22.3  42d 147
2021 03 02 05  09 16 40.565   +24 34 09.32  .36805 1.3259 151.4 22.3  42d 147
2021 03 02 06  09 16 32.840   +24 31 01.35  .36820 1.3260 151.3 22.3  42d 147
2021 03 02 07  09 16 25.133   +24 27 53.47  .36835 1.3260 151.3 22.3  43d 147
2021 03 02 08  09 16 17.443   +24 24 45.67  .36850 1.3261 151.3 22.3  43d 147
2021 03 02 09  09 16 09.771   +24 21 37.96  .36865 1.3262 151.2 22.3  43d 147
2021 03 02 10  09 16 02.117   +24 18 30.33  .36880 1.3262 151.2 22.3  43d 147
2021 03 02 11  09 15 54.480   +24 15 22.79  .36895 1.3263 151.2 22.3  43d 147
2021 03 02 12  09 15 46.861   +24 12 15.34  .36911 1.3264 151.1 22.3  43d 147
2021 03 02 13  09 15 39.259   +24 09 07.97  .36926 1.3264 151.1 22.3  43d 147
2021 03 02 14  09 15 31.674   +24 06 00.69  .36941 1.3265 151.1 22.3  43d 147
2021 03 02 15  09 15 24.107   +24 02 53.51  .36957 1.3266 151.0 22.3  43d 147